User: anonymous   Login
Location: Theydon Bois
(51.6750°N, 0.1050°E)
Time: 21:53:57
(UTC+01:00)
Language:

Cosmos 1452 Rocket - Orbit

View from above orbital plane
View from above orbital plane
View from above satellite
View from above satellite

Ground track
Ground track

The orbit data is extracted from the following two-line orbital elements,

1 13992U 83031B   17295.91060459 +.00000096 +00000-0 +41928-4 0  9990
2 13992 074.0515 132.8890 0004062 080.8678 021.2213 14.36098315806856
Epoch (UTC): 22 October 2017 21:51:16
Eccentricity: 0.0004062
inclination: 74.0515°
perigee height: 768 km
apogee height: 774 km
right ascension of ascending node: 132.8890°
argument of perigee: 80.8678°
revolutions per day: 14.36098315
mean anomaly at epoch: 21.2213°
orbit number at epoch: 80685

The dashed part of the orbit path shows where the satellite is in the earth's shadow,  

DLR